Location: Limerick
(52.6800°N, 8.6400°W)
Time: 09:44:34
(UTC+01:00)

ISS - All Passes

Search period start: 16 April 2014 00:00
Search period end: 26 April 2014 00:00
Orbit: 415 x 420 km, 51.6° (Epoch: 16 April)

Date Brightness Start Highest point End Pass type
(mag) Time Alt. Az. Time Alt. Az. Time Alt. Az.
16 Apr - 00:14:28 10° WSW 00:16:41 16° SW 00:18:52 10° S visible
16 Apr - 18:36:03 10° SW 18:39:05 32° SSE 18:42:08 10° E daylight
16 Apr - 20:12:14 10° WSW 20:15:35 72° S 20:18:57 10° E daylight
16 Apr - 21:48:56 10° W 21:52:16 62° SSW 21:55:36 10° ESE visible
16 Apr - 23:25:55 10° W 23:28:39 23° SSW 23:31:21 10° SSE visible
17 Apr - 17:48:13 10° SSW 17:50:58 24° SSE 17:53:44 10° E daylight
17 Apr - 19:24:02 10° WSW 19:27:22 63° SSE 19:30:42 10° E daylight
17 Apr - 21:00:41 10° W 21:04:02 71° S 21:07:24 10° ESE daylight
17 Apr - 22:37:31 10° W 22:40:32 31° SSW 22:43:32 10° SE visible
18 Apr - 17:00:35 10° S 17:02:52 17° SE 17:05:09 10° E daylight
18 Apr - 18:35:50 10° WSW 18:39:07 52° SSE 18:42:24 10° E daylight
18 Apr - 20:12:23 10° W 20:15:45 76° S 20:19:07 10° E daylight
18 Apr - 21:49:09 10° W 21:52:20 40° SSW 21:55:31 10° SE visible
18 Apr - 23:27:07 10° WSW 23:28:26 12° SW 23:29:44 10° SSW visible
19 Apr - 16:13:26 10° SSE 16:14:46 12° SE 16:16:06 10° ESE daylight
19 Apr - 17:47:40 10° SW 17:50:51 41° SSE 17:54:03 10° E daylight
19 Apr - 19:24:04 10° W 19:27:26 76° S 19:30:48 10° E daylight
19 Apr - 21:00:47 10° W 21:04:04 52° SSW 21:07:21 10° ESE daylight
19 Apr - 22:38:02 10° W 22:40:19 17° SW 22:42:35 10° S visible
20 Apr - 16:59:35 10° SW 17:02:35 31° SSE 17:05:36 10° E daylight
20 Apr - 18:35:43 10° WSW 18:39:04 71° S 18:42:26 10° E daylight
20 Apr - 20:12:24 10° W 20:15:44 63° SSW 20:19:04 10° ESE daylight
20 Apr - 21:49:21 10° W 21:52:07 24° SSW 21:54:52 10° SSE visible
21 Apr - 16:11:37 10° SSW 16:14:19 23° SSE 16:17:02 10° E daylight
21 Apr - 17:47:22 10° WSW 17:50:41 62° SSE 17:54:01 10° E daylight
21 Apr - 19:23:59 10° W 19:27:21 71° S 19:30:42 10° ESE daylight
21 Apr - 21:00:48 10° W 21:03:50 32° SSW 21:06:52 10° SE daylight
22 Apr - 15:23:53 10° S 15:26:03 16° SE 15:28:15 10° ESE daylight
22 Apr - 16:59:01 10° WSW 17:02:17 50° SSE 17:05:33 10° E daylight
22 Apr - 18:35:33 10° W 18:38:54 76° S 18:42:16 10° E daylight
22 Apr - 20:12:17 10° W 20:15:29 42° SSW 20:18:40 10° SE daylight
22 Apr - 21:50:05 10° WSW 21:51:35 12° SW 21:53:04 10° SSW visible
23 Apr - 14:36:43 10° SSE 14:37:48 11° SE 14:38:53 10° ESE daylight
23 Apr - 16:10:43 10° SW 16:13:52 39° SSE 16:17:02 10° E daylight
23 Apr - 17:47:04 10° W 17:50:25 75° S 17:53:46 10° E daylight
23 Apr - 19:23:45 10° W 19:27:03 53° SSW 19:30:20 10° ESE daylight
23 Apr - 21:00:57 10° W 21:03:18 18° SW 21:05:39 10° S daylight
24 Apr - 15:22:29 10° SW 15:25:26 29° SSE 15:28:25 10° E daylight
24 Apr - 16:58:33 10° WSW 17:01:54 70° S 17:05:15 10° E daylight
24 Apr - 18:35:13 10° W 18:38:33 64° SSW 18:41:53 10° ESE daylight
24 Apr - 20:12:08 10° W 20:14:56 25° SSW 20:17:44 10° SSE daylight
25 Apr - 14:34:23 10° SSW 14:37:01 22° SSE 14:39:40 10° E daylight
25 Apr - 16:10:03 10° WSW 16:13:21 60° SSE 16:16:40 10° E daylight
25 Apr - 17:46:39 10° W 17:50:00 72° S 17:53:21 10° ESE daylight
25 Apr - 19:23:26 10° W 19:26:30 33° SSW 19:29:33 10° SE daylight
